Tracking 25648 objects as of 18-May-2022
HD Live streaming from Space Station
objects crossing your sky now

SL-19 DEB

Track SL-19 DEB now!
10-day predictions


NORAD ID: 23564
Int'l Code: 1994-085V
Perigee: 1,835.7 km
Apogee: 2,151.6 km
Inclination: 65.0 °
Period: 126.9 minutes
Semi major axis: 8364 km
RCS: 0.0721 m2 (small)
Launch date: December 26, 1994
Source: Commonwealth of Independent States (former USSR) (CIS)
Launch site: TYURATAM MISSILE AND SPACE COMPLEX (TTMTR)

Note: This is SATELLITE DEBRIS
aabbcc
Your satellite tracking list
Your tracking list is empty




NASA's NSSDC Master Catalog

Two Line Element Set (TLE):
1 23564U 94085V   22136.77357308 -.00000043  00000-0 -48512-6 0  9995
2 23564  64.9964  61.0707 0188842  25.3388   1.6739 11.34828490118816
Source of the keplerian elements: AFSPC